Weather in Vasil'sursk

Russia / Nizhny Novgorod Oblast'     56°07′46″N   46°01′05″E
temp.,
°C
wind,
m/s
gust,
m/s
humid.,
%
clouds,
%
prec.,
mm/h
press.,
hPa
HPBL,
m
8 may, sat
sat800:00+5sw1195100 0.0 101712
03:00+4s119498 0.0 101710
06:00+7s11865 0.0 101884
09:00+12ese225863 0.0 1017895
12:00+15ese333810 0.0 10161698
15:00+16se4542100 0.0 10141663
18:00+14se4865100 0.0 1013821
21:00+13se4127618 0.0 1011536
9 may, sun
sun900:00+11se51285100 0.0 1010400
03:00+10sse31190100 0.0 1009300
06:00+11sse41388100 0.3 1009477
09:00+15sse51265100 0.3 1009717
12:00+19s5958100 0.0 10091177
15:00+14sse41289100 2.1 1009650
18:00+14sse2693100 1.9 1010177
21:00+13sw2896100 4.0 1012352
10 may, mon
mon1000:00+10sw3697100 0.1 1014313
03:00+10wsw1296100 0.1 1017114
06:00+8nnw3794100 0.6 1020460
09:00+7nnw4895100 2.1 1022437
12:00+8nnw3693100 1.4 1025527
15:00+9n4687100 1.6 1026718
18:00+9n4785100 0.0 1027755
21:00+7nne39891 0.0 1029461
11 may, tue
tue1100:00+4nne210976 0.0 1030278
03:00+3nne311977 0.0 1030305
06:00+5ne398810 0.0 1031368
09:00+11ne46633 0.0 1032697
12:00+16ene45472 0.0 10311036
15:00+18ne45425 0.0 10301121
18:00+16ne37560 0.0 1030372
21:00+9ene37752 0.0 1031122
12 may, wed
wed1200:00+8ene26782 0.0 1031109
03:00+7ene27800 0.0 1031134
06:00+10ene38720 0.0 1031208
09:00+17e46590 0.0 1031631
12:00+21e455311 0.0 10301090
15:00+22ese445368 0.0 10291350
18:00+20ese266783 0.0 1029289
21:00+14e268012 0.0 1028101